Regional Weather Roundup
Issued by NWS

Home | Current Version | Previous Version | Graphics & Text | Print | Product List | Glossary On
Versions: 1 2 3 4 5 6 7 8 9 10 11 12 13 14 15 16 17 18 19 20 21 22 23 24 25 26 27 28 29 30 31 32 33 34 35 36 37 38 39 40 41 42 43 44
000
ASUS45 KBOU 012307
RWRCO

WEATHER ROUNDUP FOR COLORADO
NATIONAL WEATHER SERVICE DENVER/BOULDER CO
500 PM MDT WED OCT 01 2014

NOTE: "FAIR" INDICATES FEW OR NO CLOUDS BELOW 12000 FEET WITH NO
SIGNIFICANT WEATHER AND/OR OBSTRUCTIONS TO VISIBILITY.

COZ001>005-013-030-031-020000-
...NORTHWEST COLORADO...

CITY           SKY/WX    TMP DP  RH WIND       PRES   REMARKS
CRAIG          LGT RAIN  41  37  86 SW5       30.08R
HAYDEN         CLOUDY    39  34  81 W9        30.06R
MEEKER         LGT RAIN  40  37  89 S3        30.07R
MOUNT WERNER   NOT AVBL
STEAMBOAT SPGS CLOUDY    39  36  89 SW9       30.04R
WALDEN         CLOUDY    37  32  81 NW8       30.03R
$$

COZ006>008-011-020000-
...WEST CENTRAL VALLEYS...

CITY           SKY/WX    TMP DP  RH WIND       PRES   REMARKS
GRAND JUNCTION CLOUDY    48  44  86 N10       30.01S
MONTROSE       LGT RAIN  46  42  86 SW8       30.06R
EAGLE          PTSUNNY   52  37  58 SW14      30.00R
RIFLE          LGT RAIN  46  40  79 NW12      30.00R
DELTA          TSTM      53  46  78 S3        30.02R
NUCLA          PTSUNNY   52  43  71 NW5       30.06S
$$

COZ017>023-064>068-020000-
...SOUTHWEST COLORADO...

CITY           SKY/WX    TMP DP  RH WIND       PRES   REMARKS
DURANGO        MOSUNNY   58  35  42 W20       30.00R
CORTEZ         PTSUNNY   64  36  35 W12G20    29.98F
PAGOSA SPRINGS PTSUNNY   53  41  64 SE7       30.05R
TELLURIDE      CLOUDY   N/A N/A N/A W10       30.10S
WOLF CREEK PAS PTSUNNY   30  30 100 SW21G29   30.18R WCI  17
$$

COZ009-010-012-014-032>034-037-058>063-020000-
...CENTRAL COLORADO...

CITY           SKY/WX    TMP DP  RH WIND       PRES   REMARKS
ASPEN          CLOUDY    43  35  73 N9        30.03R
BUENA VISTA    PTSUNNY   55  26  33 W12       29.97S
COPPER MTN     HAZE      34  30  86 W7G16     30.12S VSB<1/4 WCI  28
BERTHOUD PASS  FOG       25  23  93 W20       30.13R VSB 1/2 WCI  11
COTTONWOOD PAS PTSUNNY   46  28  49 W16G25    30.03S
GUNNISON       MOSUNNY   48  34  57 SW13G20   30.04R
KREMMLING      MOSUNNY   43  34  70 NW10G16   30.02S
LEADVILLE      CLOUDY    42  25  50 NW14G21   30.04R
MONARCH PASS   FOG       30  28  93 MISG      30.24R VSB 1/2
SALIDA         PTSUNNY   54  29  39 W17G28    30.04S
SUNLIGHT       LGT SNOW  34  34 100 CALM      30.12S VSB 3/4
WILKERSON PASS NOT AVBL
$$

COZ069>075-020000-
...SAN LUIS VALLEY/SANGRE DE CRISTO MOUNTAINS...

CITY           SKY/WX    TMP DP  RH WIND       PRES   REMARKS
ALAMOSA        LGT RAIN  51  38  60 NW17G24   30.00R
LA VETA PASS   MOSUNNY   46  25  42 SW9       30.06R
SAGUACHE       CLOUDY    50  36  57 NW14G20   30.01S
$$

COZ035-036-038>040-020000-
...NORTHERN COLORADO FRONT RANGE...

CITY           SKY/WX    TMP DP  RH WIND       PRES   REMARKS
DENVER INTL AP PTSUNNY   47  44  90 N23G30    29.92R
DMNS CITY PARK   N/A     47  44  88 N12G24    29.93R
AURORA         CLOUDY    46  45  99 NE15      29.94R
FRONT RANGE AP NOT AVBL
ERIE MUNI ARPT MOSUNNY   50  43  77 NE21G29   29.92R
BOULDER MUN AP CLOUDY    50  43  76 N14       29.93R
CENTENNIAL     PTSUNNY   49  45  86 NE17G25   29.92R
BROOMFIELD     PTSUNNY   50  45  81 N23G29    29.93R
FORT COLLINS   PTSUNNY   46  39  76 N22       29.96R
LONGMONT       PTSUNNY   54  42  63 N17G25    29.94R HAZE
$$

COZ041-046-047-076>085-087-088-020000-
...PIKES PEAK/PALMER DIVIDE AND SOUTHERN FOOTHILLS...

CITY           SKY/WX    TMP DP  RH WIND       PRES   REMARKS
COLO. SPRINGS  PTSUNNY   61  31  32 SW17      29.88R
A. F. ACADEMY  LGT RAIN  59  36  41 W29G37    29.91R
ELLICOTT       NOT AVBL
FALCON         PTSUNNY   59  33  38 S9        29.92S
FORT CARSON    CLOUDY    62  35  37 W8        29.86R
LIMON          CLOUDY    65  34  31 S13       29.84R
MONUMENT HILL  PTSUNNY   48  37  66 N9        29.93S
TRINIDAD       PTSUNNY   72  31  22 NW6       29.83R
$$

COZ042>045-048>051-090-091-020000-
...NORTHEAST COLORADO...

CITY           SKY/WX    TMP DP  RH WIND       PRES   REMARKS
GREELEY ARPT   CLOUDY    45  37  76 N16G24    29.95S
AKRON          PTSUNNY   64  43  46 E9        29.80F
BURLINGTON     PTSUNNY   72  37  28 SE7       29.80F
WRAY           PTSUNNY   71  40  32 E5        29.79S
STERLING       CLOUDY    55  45  67 N30G43    29.82R
HOLYOKE        SUNNY     73  45  35 E8        29.80S
FORT MORGAN    RAIN      44  41  88 NW32G41   29.92S
$$

COZ086-089-092>099-020000-
...SOUTHEAST COLORADO...

CITY           SKY/WX    TMP DP  RH WIND       PRES   REMARKS
PUEBLO         PTSUNNY   68  40  35 NW22G30   29.79R
LA JUNTA       MOSUNNY   74  35  24 E9G35     29.77S
LAMAR          MOSUNNY   78  34  20 VRB5      29.74F
SPRINGFIELD      N/A     76  35  22 SE17      29.78F
$$


USA.gov is the U.S. government's official web portal to all federal, state and local government web resources and services.